W6NJB Weather Reports


time (UTC)temp
C
wind
direction
speed
KPH
gust
KPH
rain 1hr
cm
rain 24hr
cm
rain mn
cm
humidity
%
barometer
mb
20260510142506 18 119 0.0 3.2 0.00 0.00 0.00 77 1016.3
20260510142007 18 119 0.0 1.6 0.00 0.00 0.00 78 1016.2
20260510141526 18 119 0.0 1.6 0.00 0.00 0.00 79 1016.1
20260510141008 18 119 0.0 3.2 0.00 0.00 0.00 80 1016.0
20260510140508 18 119 0.0 3.2 0.00 0.00 0.00 79 1016.0
20260510140024 17 147 0.0 3.2 0.00 0.00 0.00 79 1015.9
20260510135507 17 173 0.0 1.6 0.00 0.00 0.00 81 1015.9
20260510135008 17 175 0.0 1.6 0.00 0.00 0.00 81 1015.8
20260510134508 17 175 0.0 1.6 0.00 0.00 0.00 81 1015.8
20260510134004 17 175 0.0 1.6 0.00 0.00 0.00 81 1015.7
20260510133504 16 175 0.0 1.6 0.00 0.00 0.00 83 1015.7
20260510133013 16 175 0.0 1.6 0.00 0.00 0.00 84 1015.6
20260510132507 16 175 0.0 1.6 0.00 0.00 0.00 85 1015.5
20260510132007 16 175 0.0 1.6 0.00 0.00 0.00 86 1015.5
20260510131514 16 175 0.0 0.0 0.00 0.00 0.00 87 1015.5
20260510131007 15 175 0.0 0.0 0.00 0.00 0.00 87 1015.4
20260510130510 15 174 0.0 0.0 0.00 0.00 0.00 88 1015.3
20260510130020 15 174 0.0 0.0 0.00 0.00 0.00 89 1015.2
20260510125511 15 174 0.0 0.0 0.00 0.00 0.00 90 1015.0
20260510125009 15 174 0.0 0.0 0.00 0.00 0.00 90 1015.1
20260510124522 15 174 0.0 0.0 0.00 0.00 0.00 89 1015.1
20260510124012 14 174 0.0 0.0 0.00 0.00 0.00 89 1015.1
20260510123511 14 174 0.0 0.0 0.00 0.00 0.00 89 1015.1
20260510123009 14 174 0.0 0.0 0.00 0.00 0.00 89 1015.1
20260510122509 14 174 0.0 0.0 0.00 0.00 0.00 90 1015.1
20260510122005 13 174 0.0 0.0 0.00 0.00 0.00 90 1015.2
20260510121514 13 174 0.0 0.0 0.00 0.00 0.00 90 1015.1
20260510121006 13 174 0.0 0.0 0.00 0.00 0.00 89 1015.2
20260510120511 13 174 0.0 1.6 0.00 0.00 0.00 89 1015.3
20260510120020 13 174 0.0 1.6 0.00 0.00 0.00 90 1015.2
20260510115510 13 174 0.0 0.0 0.00 0.00 0.00 91 1015.1
20260510115011 13 174 0.0 0.0 0.00 0.00 0.00 91 1015.0
20260510114529 13 175 0.0 1.6 0.00 0.00 0.00 91 1015.0
20260510114011 12 172 0.0 1.6 0.00 0.00 0.00 91 1015.0
20260510113507 12 171 0.0 1.6 0.00 0.00 0.00 91 1015.0
20260510113034 12 171 0.0 0.0 0.00 0.00 0.00 91 1014.8
20260510112513 12 171 0.0 0.0 0.00 0.00 0.00 91 1014.6
20260510112008 12 171 0.0 0.0 0.00 0.00 0.00 91 1014.5
20260510111515 12 171 0.0 0.0 0.00 0.00 0.00 91 1014.6
20260510111008 12 171 0.0 0.0 0.00 0.00 0.00 91 1014.5
20260510110507 12 171 0.0 0.0 0.00 0.00 0.00 91 1014.4
20260510110020 12 171 0.0 0.0 0.00 0.00 0.00 91 1014.7
20260510105507 12 171 0.0 0.0 0.00 0.00 0.00 91 1014.7
20260510105011 12 171 0.0 0.0 0.00 0.00 0.00 91 1014.5
20260510104532 12 171 0.0 0.0 0.00 0.00 0.00 91 1014.2
20260510104011 12 171 0.0 0.0 0.00 0.00 0.00 91 1014.0
20260510103510 12 171 0.0 0.0 0.00 0.00 0.00 91 1013.8
20260510103027 12 171 0.0 0.0 0.00 0.00 0.00 91 1013.9
20260510102509 12 171 0.0 0.0 0.00 0.00 0.00 91 1013.9
20260510102010 12 171 0.0 0.0 0.00 0.00 0.00 90 1013.9
20260510101526 12 171 0.0 0.0 0.00 0.00 0.00 90 1013.8
20260510101008 12 171 0.0 0.0 0.00 0.00 0.00 90 1013.8
20260510100504 12 171 0.0 0.0 0.00 0.00 0.00 90 1013.6
20260510100014 12 171 0.0 0.0 0.00 0.00 0.00 90 1013.6
20260510095508 12 171 0.0 0.0 0.00 0.00 0.00 90 1013.5
20260510095008 12 171 0.0 0.0 0.00 0.00 0.00 90 1013.5
20260510094533 12 171 0.0 0.0 0.00 0.00 0.00 90 1013.5
20260510094010 12 171 0.0 0.0 0.00 0.00 0.00 90 1013.5
20260510093511 12 171 0.0 0.0 0.00 0.00 0.00 90 1013.6
20260510093026 12 171 0.0 0.0 0.00 0.00 0.00 90 1013.6
20260510092510 12 171 0.0 0.0 0.00 0.00 0.00 89 1013.5
20260510092010 12 171 0.0 0.0 0.00 0.00 0.00 89 1013.4
20260510091527 12 171 0.0 0.0 0.00 0.00 0.00 89 1013.5
20260510091008 12 171 0.0 0.0 0.00 0.00 0.00 89 1013.4
20260510090508 12 171 0.0 0.0 0.00 0.00 0.00 89 1013.4
20260510090029 12 171 0.0 0.0 0.00 0.00 0.00 89 1013.4
20260510085510 12 171 0.0 0.0 0.00 0.00 0.00 90 1013.4
20260510085008 12 171 0.0 0.0 0.00 0.00 0.00 90 1013.5
20260510084521 12 171 0.0 0.0 0.00 0.00 0.00 89 1013.5
20260510084007 12 171 0.0 0.0 0.00 0.00 0.00 89 1013.3
20260510083509 12 171 0.0 0.0 0.00 0.00 0.00 89 1013.3
20260510083021 12 171 0.0 0.0 0.00 0.00 0.00 88 1013.4
20260510082508 12 171 0.0 0.0 0.00 0.00 0.00 88 1013.3
20260510082007 12 171 0.0 0.0 0.00 0.00 0.00 88 1013.1
20260510081535 12 171 0.0 0.0 0.00 0.00 0.00 88 1012.9
20260510081011 12 171 0.0 0.0 0.00 0.00 0.00 88 1012.7
20260510080507 12 171 0.0 0.0 0.00 0.00 0.00 88 1012.6
20260510080031 13 171 0.0 0.0 0.00 0.00 0.00 87 1012.4
20260510075508 13 171 0.0 0.0 0.00 0.00 0.00 87 1012.3
20260510075008 13 171 0.0 0.0 0.00 0.00 0.00 87 1012.2
20260510074528 13 171 0.0 0.0 0.00 0.00 0.00 88 1012.3
20260510074006 13 171 0.0 0.0 0.00 0.00 0.00 87 1012.4
20260510073507 13 171 0.0 0.0 0.00 0.00 0.00 87 1012.4
20260510073020 13 171 0.0 0.0 0.00 0.00 0.00 87 1012.5
20260510072509 13 171 0.0 0.0 0.00 0.00 0.00 86 1012.6
20260510072003 13 171 0.0 0.0 0.00 0.00 0.00 87 1012.6
20260510071503 13 171 0.0 0.0 0.00 0.00 0.00 86 1012.6
20260510071004 13 171 0.0 0.0 0.00 0.00 0.00 86 1012.5
20260510070504 13 171 0.0 0.0 0.00 0.00 0.00 85 1012.6
20260510070008 13 171 0.0 0.0 0.00 0.00 0.00 86 1012.6
20260510065506 13 171 0.0 0.0 0.00 0.00 0.00 86 1012.7
20260510065009 13 171 0.0 0.0 0.00 0.00 0.00 87 1012.7
20260510064516 13 171 0.0 0.0 0.00 0.00 0.00 86 1012.8
20260510064006 13 171 0.0 0.0 0.00 0.00 0.00 86 1012.9
20260510063508 13 171 0.0 0.0 0.00 0.00 0.00 85 1013.0
20260510063021 13 171 0.0 0.0 0.00 0.00 0.00 86 1013.2
20260510062508 13 171 0.0 0.0 0.00 0.00 0.00 87 1013.1
20260510062013 13 172 0.0 0.0 0.00 0.00 0.00 86 1013.1
20260510061528 13 171 0.0 0.0 0.00 0.00 0.00 86 1013.1
20260510061009 13 171 0.0 0.0 0.00 0.00 0.00 86 1013.1
20260510060506 13 171 0.0 0.0 0.00 0.00 0.00 86 1013.1
20260510060009 13 171 0.0 0.0 0.00 0.00 0.00 86 1013.0
20260510055507 13 171 0.0 0.0 0.00 0.00 0.00 85 1013.1
20260510055007 13 171 0.0 0.0 0.00 0.00 0.00 84 1013.1
20260510054510 13 171 0.0 0.0 0.00 0.00 0.00 84 1013.1
20260510054006 13 171 0.0 0.0 0.00 0.00 0.00 84 1013.1
20260510053507 13 171 0.0 0.0 0.00 0.00 0.00 83 1013.0
20260510053016 13 171 0.0 0.0 0.00 0.00 0.00 84 1013.0
20260510052507 13 171 0.0 0.0 0.00 0.00 0.00 85 1012.9
20260510052007 13 171 0.0 0.0 0.00 0.00 0.00 84 1012.7
20260510051531 14 171 0.0 0.0 0.00 0.00 0.00 84 1012.7
20260510051007 14 171 0.0 0.0 0.00 0.00 0.00 83 1012.7
20260510050509 14 171 0.0 0.0 0.00 0.00 0.00 82 1012.6
20260510050026 14 171 0.0 1.6 0.00 0.00 0.00 80 1012.8
20260510045506 14 171 0.0 1.6 0.00 0.00 0.00 79 1012.7
20260510045003 15 171 0.0 0.0 0.00 0.00 0.00 79 1012.6
20260510044512 15 172 0.0 0.0 0.00 0.00 0.00 78 1012.5
20260510044006 15 171 0.0 0.0 0.00 0.00 0.00 78 1012.4
20260510043507 15 172 0.0 1.6 0.00 0.00 0.00 77 1012.4
20260510043020 15 171 0.0 1.6 0.00 0.00 0.00 76 1012.4
20260510042508 15 171 0.0 0.0 0.00 0.00 0.00 76 1012.3
20260510042007 15 171 0.0 0.0 0.00 0.00 0.00 75 1012.3
20260510041520 15 171 0.0 0.0 0.00 0.00 0.00 75 1012.3
20260510041007 16 171 0.0 1.6 0.00 0.00 0.00 75 1012.3
20260510040508 16 171 0.0 1.6 0.00 0.00 0.00 74 1012.3
20260510040025 16 171 0.0 1.6 0.00 0.00 0.00 75 1012.3
20260510035507 16 171 0.0 1.6 0.00 0.00 0.00 74 1012.3
20260510035013 16 171 0.0 1.6 0.00 0.00 0.00 75 1012.3
20260510034528 16 171 0.0 1.6 0.00 0.00 0.00 75 1012.3
20260510034007 16 171 0.0 3.2 0.00 0.00 0.00 73 1012.3
20260510033507 16 171 0.0 3.2 0.00 0.00 0.00 72 1012.2
20260510033013 16 127 0.0 1.6 0.00 0.00 0.00 72 1012.2
20260510032511 16 120 0.0 3.2 0.00 0.00 0.00 72 1012.2
20260510032009 16 120 0.0 3.2 0.00 0.00 0.00 72 1012.2
20260510031517 16 144 0.0 3.2 0.00 0.00 0.00 72 1012.1
20260510031007 16 144 0.0 3.2 0.00 0.00 0.00 70 1012.2
20260510030507 16 144 0.0 0.0 0.00 0.00 0.00 72 1012.2
20260510030026 16 144 0.0 0.0 0.00 0.00 0.00 71 1012.2
20260510025510 16 144 0.0 0.0 0.00 0.00 0.00 70 1012.1
20260510025009 16 144 0.0 0.0 0.00 0.00 0.00 68 1012.1
20260510024526 17 144 0.0 0.0 0.00 0.00 0.00 68 1012.0
20260510024007 17 144 0.0 0.0 0.00 0.00 0.00 67 1011.9
20260510023510 17 144 0.0 0.0 0.00 0.00 0.00 67 1011.9
20260510023028 17 144 0.0 0.0 0.00 0.00 0.00 66 1011.8
20260510022508 17 144 0.0 0.0 0.00 0.00 0.00 64 1011.7
20260510022005 18 144 0.0 0.0 0.00 0.00 0.00 64 1011.6
20260510021525 18 144 0.0 0.0 0.00 0.00 0.00 64 1011.6
20260510021007 18 144 0.0 0.0 0.00 0.00 0.00 63 1011.5
20260510020509 18 144 0.0 0.0 0.00 0.00 0.00 64 1011.5
20260510020022 18 144 0.0 0.0 0.00 0.00 0.00 63 1011.4
20260510015508 19 144 0.0 0.0 0.00 0.00 0.00 61 1011.3
20260510015009 19 144 0.0 0.0 0.00 0.00 0.00 59 1011.3
20260510014528 20 144 0.0 0.0 0.00 0.00 0.00 57 1011.2
20260510014009 20 144 0.0 0.0 0.00 0.00 0.00 59 1011.2
20260510013508 20 144 0.0 1.6 0.00 0.00 0.00 57 1011.1
20260510013025 20 144 0.0 1.6 0.00 0.00 0.00 56 1011.0
20260510012513 21 144 0.0 0.0 0.00 0.00 0.00 56 1010.9
20260510012010 21 144 0.0 0.0 0.00 0.00 0.00 56 1010.9
20260510011512 21 144 0.0 1.6 0.00 0.00 0.00 52 1010.9
20260510011005 22 144 0.0 1.6 0.00 0.00 0.00 54 1010.8
20260510010507 22 155 0.0 1.6 0.00 0.00 0.00 54 1010.8
20260510010017 23 154 0.0 0.0 0.00 0.00 0.00 51 1010.7
20260510005508 23 154 0.0 0.0 0.00 0.00 0.00 49 1010.6
20260510005008 23 154 0.0 0.0 0.00 0.00 0.00 50 1010.7
20260510004522 23 154 0.0 1.6 0.00 0.00 0.00 49 1010.6
20260510004011 24 154 0.0 1.6 0.00 0.00 0.00 46 1010.5
20260510003508 25 154 0.0 1.6 0.00 0.00 0.00 45 1010.4
20260510003028 25 154 0.0 3.2 0.00 0.00 0.00 43 1010.4
20260510002513 25 150 0.0 3.2 0.00 0.00 0.00 42 1010.3
20260510002008 25 156 0.0 3.2 0.00 0.00 0.00 42 1010.3
20260510001525 25 120 0.0 3.2 0.00 0.00 0.00 41 1010.3
20260510001011 25 120 0.0 3.2 0.00 0.00 0.00 40 1010.3
20260510000509 26 128 0.0 3.2 0.00 0.00 0.00 41 1010.2
20260510000020 26 182 0.0 3.2 0.00 0.00 0.00 42 1010.1
20260509235506 26 135 0.0 3.2 0.00 0.00 0.00 40 1010.1
20260509235010 26 97 0.0 4.8 0.00 0.00 0.00 40 1010.0
20260509234519 26 90 0.0 4.8 0.00 0.00 0.00 38 1010.0
20260509234013 27 114 0.0 9.7 0.00 0.00 0.00 37 1010.0
20260509233508 27 113 3.2 9.7 0.00 0.00 0.00 35 1010.0
20260509233023 27 171 0.0 4.8 0.00 0.00 0.00 36 1010.0
20260509232506 28 144 0.0 1.6 0.00 0.00 0.00 39 1010.0
20260509232002 28 144 0.0 3.2 0.00 0.00 0.00 35 1009.9
20260509231507 28 144 0.0 4.8 0.00 0.00 0.00 33 1010.0
20260509231004 28 142 1.6 4.8 0.00 0.00 0.00 27 1009.9
20260509230505 28 240 0.0 1.6 0.00 0.00 0.00 27 1010.0
20260509230015 28 240 0.0 3.2 0.00 0.00 0.00 32 1010.0
20260509225506 28 246 0.0 3.2 0.00 0.00 0.00 27 1010.0
20260509225006 28 245 0.0 3.2 0.00 0.00 0.00 29 1010.0
20260509224517 28 139 0.0 4.8 0.00 0.00 0.00 28 1010.0
20260509224010 28 130 1.6 6.4 0.00 0.00 0.00 30 1009.9
20260509223510 28 268 3.2 6.4 0.00 0.00 0.00 29 1009.9
20260509223005 28 32 0.0 4.8 0.00 0.00 0.00 32 1009.9
20260509222503 28 74 1.6 4.8 0.00 0.00 0.00 32 1009.8
20260509222006 28 268 1.6 4.8 0.00 0.00 0.00 28 1009.8
20260509221505 28 304 1.6 4.8 0.00 0.00 0.00 29 1009.7
20260509221005 28 331 1.6 4.8 0.00 0.00 0.00 31 1009.7
20260509220503 28 38 0.0 4.8 0.00 0.00 0.00 32 1009.6
20260509220010 28 43 1.6 4.8 0.00 0.00 0.00 33 1009.6
20260509215504 28 32 0.0 6.4 0.00 0.00 0.00 31 1009.7
20260509215004 28 125 1.6 6.4 0.00 0.00 0.00 31 1009.7
20260509214514 28 99 1.6 4.8 0.00 0.00 0.00 29 1009.7
20260509214008 28 171 0.0 3.2 0.00 0.00 0.00 31 1009.6
20260509213508 28 85 0.0 6.4 0.00 0.00 0.00 30 1009.7
20260509213020 28 242 1.6 9.7 0.00 0.00 0.00 29 1009.8
20260509212509 28 40 1.6 9.7 0.00 0.00 0.00 30 1009.8
20260509212004 28 110 0.0 6.4 0.00 0.00 0.00 33 1009.8
20260509211509 28 302 1.6 6.4 0.00 0.00 0.00 31 1009.9
20260509211008 28 257 3.2 9.7 0.00 0.00 0.00 31 1009.9
20260509210504 28 294 1.6 9.7 0.00 0.00 0.00 30 1010.0
20260509210011 28 5 0.0 3.2 0.00 0.00 0.00 34 1010.1
20260509205505 28 119 0.0 6.4 0.00 0.00 0.00 33 1010.2
20260509205007 28 260 1.6 6.4 0.00 0.00 0.00 29 1010.2
20260509204515 28 140 1.6 6.4 0.00 0.00 0.00 31 1010.3
20260509204012 28 91 0.0 6.4 0.00 0.00 0.00 29 1010.3
20260509203505 28 121 1.6 8.0 0.00 0.00 0.00 33 1010.3
20260509203024 28 227 1.6 8.0 0.00 0.00 0.00 32 1010.3
20260509202511 28 93 1.6 4.8 0.00 0.00 0.00 31 1010.4
20260509202011 28 135 1.6 4.8 0.00 0.00 0.00 33 1010.6
20260509201526 27 248 0.0 6.4 0.00 0.00 0.00 32 1010.6
20260509201010 27 252 3.2 6.4 0.00 0.00 0.00 29 1010.7
20260509200502 27 246 1.6 6.4 0.00 0.00 0.00 33 1010.7
20260509200006 27 83 1.6 8.0 0.00 0.00 0.00 31 1010.8
20260509195503 28 124 1.6 8.0 0.00 0.00 0.00 32 1010.9
20260509195003 28 135 1.6 6.4 0.00 0.00 0.00 31 1010.9
20260509194511 28 79 1.6 4.8 0.00 0.00 0.00 31 1010.9
20260509194009 28 314 0.0 4.8 0.00 0.00 0.00 34 1010.9
20260509193508 27 310 1.6 4.8 0.00 0.00 0.00 31 1011.0
20260509193018 27 225 1.6 6.4 0.00 0.00 0.00 32 1011.0
20260509192508 27 65 3.2 6.4 0.00 0.00 0.00 35 1011.0
20260509192009 27 213 1.6 9.7 0.00 0.00 0.00 34 1011.0
20260509191526 27 307 0.0 9.7 0.00 0.00 0.00 32 1011.0
20260509191010 27 263 4.8 9.7 0.00 0.00 0.00 30 1011.0
20260509190507 27 5 1.6 8.0 0.00 0.00 0.00 36 1011.0
20260509190026 27 123 3.2 9.7 0.00 0.00 0.00 38 1011.0
20260509185512 26 112 1.6 9.7 0.00 0.00 0.00 35 1011.0
20260509185003 27 102 3.2 11.3 0.00 0.00 0.00 33 1011.0
20260509184515 27 80 3.2 11.3 0.00 0.00 0.00 35 1011.0
20260509184007 26 109 1.6 11.3 0.00 0.00 0.00 36 1011.1
20260509183507 27 111 3.2 11.3 0.00 0.00 0.00 37 1011.1
20260509183014 27 223 0.0 6.4 0.00 0.00 0.00 35 1011.2
20260509182509 27 25 0.0 6.4 0.00 0.00 0.00 40 1011.2
20260509182008 26 132 1.6 6.4 0.00 0.00 0.00 38 1011.2
20260509181520 26 84 1.6 8.0 0.00 0.00 0.00 40 1011.2
20260509181012 26 299 1.6 8.0 0.00 0.00 0.00 40 1011.1
20260509180509 26 46 3.2 6.4 0.00 0.00 0.00 40 1011.2
20260509180026 26 111 1.6 8.0 0.00 0.00 0.00 44 1011.1
20260509175509 26 242 1.6 8.0 0.00 0.00 0.00 43 1011.2
20260509175011 26 258 0.0 6.4 0.00 0.00 0.00 44 1011.2
20260509174527 26 119 1.6 6.4 0.00 0.00 0.00 46 1011.1
20260509174002 25 329 3.2 6.4 0.00 0.00 0.00 47 1011.2
20260509173505 25 72 0.0 8.0 0.00 0.00 0.00 48 1011.2
20260509173037 25 128 1.6 8.0 0.00 0.00 0.00 50 1011.2
20260509172507 25 92 3.2 6.4 0.00 0.00 0.00 50 1011.2
20260509172007 25 262 0.0 6.4 0.00 0.00 0.00 51 1011.3
20260509171527 25 136 1.6 6.4 0.00 0.00 0.00 48 1011.3
20260509171007 25 165 0.0 6.4 0.00 0.00 0.00 49 1011.4
20260509170507 25 165 1.6 6.4 0.00 0.00 0.00 51 1011.4
20260509170024 25 143 1.6 6.4 0.00 0.00 0.00 51 1011.4
20260509165507 25 124 1.6 9.7 0.00 0.00 0.00 54 1011.4
20260509165010 24 5 1.6 9.7 0.00 0.00 0.00 55 1011.4
20260509164523 24 336 0.0 4.8 0.00 0.00 0.00 56 1011.4
20260509164012 24 277 1.6 6.4 0.00 0.00 0.00 53 1011.4
20260509163510 23 253 1.6 9.7 0.00 0.00 0.00 55 1011.5
20260509163027 23 118 1.6 14.5 0.00 0.00 0.00 56 1011.4
20260509162506 23 260 0.0 14.5 0.00 0.00 0.00 55 1011.4
20260509162006 23 267 1.6 11.3 0.00 0.00 0.00 56 1011.4
20260509161512 22 146 3.2 11.3 0.00 0.00 0.00 59 1011.3
20260509161010 22 311 3.2 12.9 0.00 0.00 0.00 59 1011.3
20260509160508 22 308 6.4 14.5 0.00 0.00 0.00 60 1011.3
20260509160023 22 257 4.8 14.5 0.00 0.00 0.00 58 1011.3
20260509155508 22 342 1.6 9.7 0.00 0.00 0.00 61 1011.3
20260509155012 22 252 1.6 11.3 0.00 0.00 0.00 63 1011.4
20260509154526 22 265 4.8 11.3 0.00 0.00 0.00 64 1011.4
20260509154014 22 246 3.2 12.9 0.00 0.00 0.00 63 1011.4
20260509153510 22 277 6.4 12.9 0.00 0.00 0.00 63 1011.4
20260509153033 22 352 1.6 9.7 0.00 0.00 0.00 66 1011.4
20260509152511 21 305 1.6 8.0 0.00 0.00 0.00 65 1011.3
20260509152010 21 258 1.6 12.9 0.00 0.00 0.00 66 1011.3
20260509151511 21 271 1.6 12.9 0.00 0.00 0.00 64 1011.4
20260509151011 21 251 1.6 11.3 0.00 0.00 0.00 66 1011.3
20260509150507 21 232 4.8 11.3 0.00 0.00 0.00 66 1011.3
20260509150018 21 275 0.0 8.0 0.00 0.00 0.00 68 1011.3
20260509145507 21 227 4.8 8.0 0.00 0.00 0.00 68 1011.4
20260509145008 20 13 1.6 9.7 0.00 0.00 0.00 73 1011.3
20260509144524 20 291 3.2 11.3 0.00 0.00 0.00 71 1011.2
20260509144007 20 231 4.8 11.3 0.00 0.00 0.00 69 1011.3
20260509143509 20 238 1.6 11.3 0.00 0.00 0.00 70 1011.3
20260509143024 20 264 1.6 11.3 0.00 0.00 0.00 71 1011.3